Hourly Weather Bartkowa-Posadowej

Today, 19 April, Monday

Time Temperature Precipitation Wind Pressure Humidity
00:00 +5°C° 0 mm 0 mps 730 mmHg 88%
01:00 +4°C° 0 mm 0 mps 730 mmHg 90%
02:00 +4°C° 0.1 mm 0 mps 730 mmHg 91%
03:00 +4°C° 0.1 mm 0 mps 730 mmHg 92%
04:00 +4°C° 0.1 mm 0 mps 730 mmHg 94%
05:00 +6°C° 0.2 mm 1 mps 730 mmHg 94%
06:00 +6°C° 0.2 mm 1 mps 730 mmHg 94%
07:00 +6°C° 0.2 mm 1 mps 730 mmHg 94%
08:00 +7°C° 0.3 mm 1 mps 729 mmHg 94%
09:00 +7°C° 0.3 mm 1 mps 729 mmHg 94%
10:00 +7°C° 0.3 mm 1 mps 729 mmHg 94%
11:00 +7°C° 0.3 mm 1 mps 729 mmHg 94%
12:00 +7°C° 0.3 mm 1 mps 729 mmHg 93%
13:00 +6°C° 0.3 mm 2 mps 729 mmHg 93%
14:00 +8°C° 0.1 mm 1 mps 729 mmHg 91%
15:00 +8°C° 0.1 mm 1 mps 729 mmHg 90%
16:00 +9°C° 0.1 mm 1 mps 728 mmHg 88%
17:00 +8°C° 0.4 mm 1 mps 728 mmHg 91%
18:00 +8°C° 0.4 mm 1 mps 728 mmHg 93%
19:00 +7°C° 0.4 mm 1 mps 728 mmHg 96%
20:00 +7°C° 0.2 mm 1 mps 728 mmHg 96%
21:00 +7°C° 0.2 mm 1 mps 728 mmHg 95%
22:00 +6°C° 0.2 mm 1 mps 728 mmHg 95%
23:00 +6°C° 0 mm 1 mps 728 mmHg 96%

Tomorrow, 20 April, Tuesday

Time Temperature Precipitation Wind Pressure Humidity
00:00 +5°C° 0 mm 1 mps 728 mmHg 96%
01:00 +5°C° 0 mm 1 mps 727 mmHg 96%
02:00 +5°C° 0 mm 1 mps 727 mmHg 97%
03:00 +5°C° 0 mm 1 mps 727 mmHg 97%
04:00 +5°C° 0 mm 1 mps 727 mmHg 97%
05:00 +5°C° 0 mm 1 mps 728 mmHg 96%
06:00 +6°C° 0 mm 1 mps 728 mmHg 95%
07:00 +6°C° 0 mm 1 mps 728 mmHg 94%
08:00 +7°C° 0.1 mm 1 mps 728 mmHg 89%
09:00 +8°C° 0.1 mm 1 mps 728 mmHg 84%
10:00 +9°C° 0.1 mm 1 mps 728 mmHg 80%
11:00 +9°C° 0.4 mm 2 mps 728 mmHg 75%
12:00 +10°C° 0.4 mm 2 mps 727 mmHg 71%
13:00 +12°C° 0.4 mm 2 mps 727 mmHg 67%
14:00 +12°C° 0.4 mm 2 mps 727 mmHg 67%
15:00 +12°C° 0.4 mm 2 mps 727 mmHg 67%
16:00 +12°C° 0.4 mm 1 mps 727 mmHg 67%
17:00 +10°C° 0.2 mm 1 mps 727 mmHg 73%
18:00 +9°C° 0.2 mm 1 mps 727 mmHg 78%
19:00 +7°C° 0.2 mm 1 mps 727 mmHg 84%
20:00 +7°C° 0 mm 1 mps 727 mmHg 86%
21:00 +6°C° 0 mm 1 mps 727 mmHg 87%
22:00 +6°C° 0 mm 1 mps 727 mmHg 88%
23:00 +6°C° 0 mm 1 mps 727 mmHg 89%

Day after tomorrow, 21 April, Wednesday

Time Temperature Precipitation Wind Pressure Humidity
00:00 +6°C° 0 mm 1 mps 727 mmHg 90%
01:00 +5°C° 0 mm 1 mps 727 mmHg 90%
02:00 +5°C° 0 mm 1 mps 727 mmHg 91%
03:00 +5°C° 0 mm 1 mps 727 mmHg 91%
04:00 +4°C° 0 mm 1 mps 727 mmHg 91%
05:00 +6°C° 0 mm 1 mps 727 mmHg 87%
06:00 +7°C° 0 mm 1 mps 727 mmHg 84%
07:00 +8°C° 0 mm 1 mps 727 mmHg 80%
08:00 +9°C° 0.1 mm 2 mps 727 mmHg 73%
09:00 +10°C° 0.1 mm 2 mps 727 mmHg 65%
10:00 +13°C° 0.1 mm 2 mps 727 mmHg 58%
11:00 +12°C° 0.4 mm 3 mps 727 mmHg 58%
12:00 +13°C° 0.4 mm 3 mps 727 mmHg 58%
13:00 +13°C° 0.4 mm 4 mps 727 mmHg 58%
14:00 +13°C° 0.4 mm 4 mps 727 mmHg 61%
15:00 +13°C° 0.4 mm 3 mps 726 mmHg 64%
16:00 +13°C° 0.4 mm 3 mps 726 mmHg 67%
17:00 +11°C° 0.6 mm 3 mps 726 mmHg 74%
18:00 +10°C° 0.6 mm 2 mps 726 mmHg 80%
19:00 +8°C° 0.6 mm 2 mps 726 mmHg 86%
20:00 +8°C° 0.2 mm 2 mps 726 mmHg 87%
21:00 +7°C° 0.2 mm 2 mps 727 mmHg 89%
22:00 +7°C° 0.2 mm 2 mps 727 mmHg 90%
23:00 +6°C° 0 mm 2 mps 727 mmHg 90%

22 April, Thursday

Time Temperature Precipitation Wind Pressure Humidity
00:00 +6°C° 0 mm 2 mps 727 mmHg 90%
01:00 +6°C° 0 mm 2 mps 727 mmHg 90%
02:00 +6°C° 0 mm 2 mps 727 mmHg 90%
03:00 +5°C° 0 mm 2 mps 727 mmHg 90%
04:00 +5°C° 0 mm 2 mps 727 mmHg 90%
05:00 +6°C° 0 mm 2 mps 727 mmHg 88%
06:00 +7°C° 0 mm 2 mps 727 mmHg 86%
07:00 +8°C° 0 mm 2 mps 728 mmHg 85%
08:00 +8°C° 0.1 mm 2 mps 728 mmHg 81%
09:00 +9°C° 0.1 mm 2 mps 728 mmHg 78%
10:00 +10°C° 0.1 mm 2 mps 728 mmHg 75%
11:00 +9°C° 0.8 mm 2 mps 728 mmHg 81%
12:00 +8°C° 0.8 mm 3 mps 728 mmHg 88%
13:00 +5°C° 0.8 mm 3 mps 728 mmHg 94%
14:00 +5°C° 1.1 mm 3 mps 728 mmHg 94%
15:00 +4°C° 1.1 mm 3 mps 728 mmHg 93%
16:00 +5°C° 1.1 mm 2 mps 728 mmHg 93%
17:00 +5°C° 0 mm 2 mps 728 mmHg 92%
18:00 +6°C° 0 mm 1 mps 729 mmHg 92%
19:00 +5°C° 0 mm 1 mps 729 mmHg 91%
20:00 +5°C° 0 mm 1 mps 729 mmHg 91%
21:00 +5°C° 0 mm 1 mps 729 mmHg 91%
22:00 +5°C° 0 mm 1 mps 729 mmHg 91%
23:00 +3°C° 0 mm 2 mps 729 mmHg 90%

23 April, Friday

Time Temperature Precipitation Wind Pressure Humidity
00:00 +3°C° 0 mm 2 mps 729 mmHg 89%
01:00 +3°C° 0 mm 2 mps 729 mmHg 88%
02:00 +2°C° 0 mm 2 mps 729 mmHg 87%
03:00 +1°C° 0 mm 2 mps 729 mmHg 87%
04:00 0°C° 0 mm 3 mps 729 mmHg 86%
05:00 0°C° 0 mm 4 mps 730 mmHg 84%
06:00 +1°C° 0 mm 4 mps 730 mmHg 82%
07:00 +2°C° 0 mm 5 mps 731 mmHg 81%
08:00 +3°C° 0 mm 5 mps 731 mmHg 74%
09:00 +5°C° 0 mm 5 mps 731 mmHg 68%
10:00 +5°C° 0 mm 6 mps 732 mmHg 61%
11:00 +6°C° 0.1 mm 5 mps 732 mmHg 61%
12:00 +6°C° 0.1 mm 5 mps 732 mmHg 62%
13:00 +6°C° 0.1 mm 5 mps 732 mmHg 62%
14:00 +7°C° 0 mm 5 mps 732 mmHg 61%
15:00 +7°C° 0 mm 5 mps 732 mmHg 60%
16:00 +7°C° 0 mm 5 mps 732 mmHg 59%
17:00 +6°C° 0 mm 4 mps 732 mmHg 67%
18:00 +4°C° 0 mm 3 mps 732 mmHg 76%
19:00 +4°C° 0 mm 2 mps 732 mmHg 84%
20:00 +3°C° 0 mm 2 mps 732 mmHg 85%
21:00 +3°C° 0 mm 2 mps 732 mmHg 86%
22:00 +2°C° 0 mm 2 mps 732 mmHg 87%
23:00 +2°C° 0 mm 2 mps 731 mmHg 86%

24 April, Saturday

Time Temperature Precipitation Wind Pressure Humidity
00:00 +2°C° 0 mm 2 mps 731 mmHg 86%
01:00 +1°C° 0 mm 2 mps 731 mmHg 86%
02:00 +1°C° 0 mm 2 mps 730 mmHg 85%
03:00 +1°C° 0 mm 2 mps 730 mmHg 85%
04:00 +1°C° 0 mm 2 mps 730 mmHg 84%
05:00 +1°C° 0.1 mm 3 mps 730 mmHg 83%
06:00 +2°C° 0.1 mm 3 mps 730 mmHg 82%
07:00 +3°C° 0.1 mm 4 mps 730 mmHg 81%
08:00 +3°C° 0.2 mm 5 mps 730 mmHg 81%
09:00 +3°C° 0.2 mm 6 mps 730 mmHg 82%
10:00 +3°C° 0.2 mm 6 mps 731 mmHg 82%
11:00 +3°C° 0.2 mm 7 mps 731 mmHg 76%
12:00 +4°C° 0.2 mm 7 mps 731 mmHg 71%
13:00 +4°C° 0.2 mm 8 mps 731 mmHg 65%
14:00 +4°C° 0.1 mm 8 mps 731 mmHg 65%
15:00 +4°C° 0.1 mm 7 mps 732 mmHg 65%
16:00 +4°C° 0.1 mm 7 mps 732 mmHg 65%
17:00 +2°C° 0.1 mm 6 mps 732 mmHg 71%
18:00 +1°C° 0.1 mm 4 mps 733 mmHg 78%
19:00 +2°C° 0.1 mm 2 mps 733 mmHg 85%
20:00 +1°C° 0.1 mm 2 mps 733 mmHg 85%
21:00 0°C° 0.1 mm 3 mps 734 mmHg 86%
22:00 0°C° 0.1 mm 3 mps 734 mmHg 87%
23:00 -1°C° 0.1 mm 3 mps 734 mmHg 86%
Show more